Location: Newark
(30.0333°N, 31.2167°E)
Time: 15:15:21
(UTC+00:00)

Tiros 1 despin weight - Pass Details

Date: 27 January 2020
Orbit: 594 x 642 km, 48.2° (Epoch: 27 February)

Event Time Altitude Azimuth Distance (km) Brightness Sun altitude
Rises 08:31:28 0° 259° (WSW) 2,837 ? 36.2°
Reaches altitude 10° 08:34:04 10° 272° (W) 1,944 ? 36.4°
Maximum altitude 08:37:48 26° 329° (NNW) 1,215 ? 36.8°
Drops below altitude 10° 08:41:36 10° 26° (NNE) 1,973 ? 37.2°
Sets 08:44:15 0° 39° (NE) 2,890 ? 37.4°
